owner,sensor,date,latitude,longitude,air_pressure(mBar),qcFlag 
LUMCON,ioos:station:LUMCON:103:1,2009-07-01T16:00:00Z,30.1889,-90.1683,9999.0,11144222 
LUMCON,ioos:station:LUMCON:103:1,2009-07-01T17:00:00Z,30.1889,-90.1683,9999.0,11144222 
LUMCON,ioos:station:LUMCON:103:1,2009-07-01T18:00:00Z,30.1889,-90.1683,9999.0,11144222 
LUMCON,ioos:station:LUMCON:103:1,2009-07-01T19:00:00Z,30.1889,-90.1683,9999.0,11144222 
LUMCON,ioos:station:LUMCON:103:1,2009-07-01T20:00:00Z,30.1889,-90.1683,9999.0,11144222 
LUMCON,ioos:station:LUMCON:103:1,2009-07-01T21:00:00Z,30.1889,-90.1683,9999.0,11144222 
LUMCON,ioos:station:LUMCON:103:1,2009-07-01T22:00:00Z,30.1889,-90.1683,9999.0,11144222 
LUMCON,ioos:station:LUMCON:103:1,2009-07-01T23:00:00Z,30.1889,-90.1683,9999.0,11144222 
LUMCON,ioos:station:LUMCON:103:1,2009-07-02T00:00:00Z,30.1889,-90.1683,9999.0,11144222 
LUMCON,ioos:station:LUMCON:103:1,2009-07-02T01:00:00Z,30.1889,-90.1683,9999.0,11144222 
LUMCON,ioos:station:LUMCON:103:1,2009-07-02T02:00:00Z,30.1889,-90.1683,9999.0,11144222 
LUMCON,ioos:station:LUMCON:103:1,2009-07-02T15:00:00Z,30.1889,-90.1683,9999.0,11144222 
LUMCON,ioos:station:LUMCON:103:1,2009-07-02T16:00:00Z,30.1889,-90.1683,9999.0,11144222 
LUMCON,ioos:station:LUMCON:103:1,2009-07-02T17:00:00Z,30.1889,-90.1683,9999.0,11144222 
LUMCON,ioos:station:LUMCON:103:1,2009-07-02T18:00:00Z,30.1889,-90.1683,9999.0,11144222 
LUMCON,ioos:station:LUMCON:103:1,2009-07-02T19:00:00Z,30.1889,-90.1683,9999.0,11144222 
LUMCON,ioos:station:LUMCON:103:1,2009-07-02T20:00:00Z,30.1889,-90.1683,9999.0,11144222 
LUMCON,ioos:station:LUMCON:103:1,2009-07-02T21:00:00Z,30.1889,-90.1683,9999.0,11144222 
LUMCON,ioos:station:LUMCON:103:1,2009-07-02T22:00:00Z,30.1889,-90.1683,9999.0,11144222 
LUMCON,ioos:station:LUMCON:103:1,2009-07-02T23:00:00Z,30.1889,-90.1683,9999.0,11144222 
LUMCON,ioos:station:LUMCON:103:1,2009-07-03T00:00:00Z,30.1889,-90.1683,9999.0,11144222 
LUMCON,ioos:station:LUMCON:103:1,2009-07-03T01:00:00Z,30.1889,-90.1683,9999.0,11144222 
LUMCON,ioos:station:LUMCON:103:1,2009-07-03T02:00:00Z,30.1889,-90.1683,9999.0,11144222 
LUMCON,ioos:station:LUMCON:103:1,2009-07-03T15:00:00Z,30.1889,-90.1683,9999.0,11144222 
LUMCON,ioos:station:LUMCON:103:1,2009-07-03T16:00:00Z,30.1889,-90.1683,9999.0,11144222 
LUMCON,ioos:station:LUMCON:103:1,2009-07-03T17:00:00Z,30.1889,-90.1683,9999.0,11144222 
LUMCON,ioos:station:LUMCON:103:1,2009-07-03T18:00:00Z,30.1889,-90.1683,9999.0,11144222 
LUMCON,ioos:station:LUMCON:103:1,2009-07-03T19:00:00Z,30.1889,-90.1683,9999.0,11144222 
LUMCON,ioos:station:LUMCON:103:1,2009-07-03T20:00:00Z,30.1889,-90.1683,9999.0,11144222 
LUMCON,ioos:station:LUMCON:103:1,2009-07-03T21:00:00Z,30.1889,-90.1683,9999.0,11144222 
LUMCON,ioos:station:LUMCON:103:1,2009-07-03T22:00:00Z,30.1889,-90.1683,9999.0,11144222 
LUMCON,ioos:station:LUMCON:103:1,2009-07-03T23:00:00Z,30.1889,-90.1683,9999.0,11144222 
LUMCON,ioos:station:LUMCON:103:1,2009-07-04T00:00:00Z,30.1889,-90.1683,9999.0,11144222 
LUMCON,ioos:station:LUMCON:103:1,2009-07-04T01:00:00Z,30.1889,-90.1683,9999.0,11144222 
LUMCON,ioos:station:LUMCON:103:1,2009-07-04T02:00:00Z,30.1889,-90.1683,9999.0,11144222 
LUMCON,ioos:station:LUMCON:103:1,2009-07-04T03:00:00Z,30.1889,-90.1683,9999.0,11144222 
LUMCON,ioos:station:LUMCON:103:1,2009-07-04T04:00:00Z,30.1889,-90.1683,9999.0,11144222 
LUMCON,ioos:station:LUMCON:103:1,2009-07-04T15:00:00Z,30.1889,-90.1683,9999.0,11144222 
LUMCON,ioos:station:LUMCON:103:1,2009-07-04T16:00:00Z,30.1889,-90.1683,9999.0,11144222 
LUMCON,ioos:station:LUMCON:103:1,2009-07-04T17:00:00Z,30.1889,-90.1683,9999.0,11144222 
LUMCON,ioos:station:LUMCON:103:1,2009-07-04T18:00:00Z,30.1889,-90.1683,9999.0,11144222 
LUMCON,ioos:station:LUMCON:103:1,2009-07-04T19:00:00Z,30.1889,-90.1683,9999.0,11144222 
LUMCON,ioos:station:LUMCON:103:1,2009-07-04T20:00:00Z,30.1889,-90.1683,9999.0,11144222 
LUMCON,ioos:station:LUMCON:103:1,2009-07-04T21:00:00Z,30.1889,-90.1683,9999.0,11144222 
LUMCON,ioos:station:LUMCON:103:1,2009-07-04T22:00:00Z,30.1889,-90.1683,9999.0,11144222 
LUMCON,ioos:station:LUMCON:103:1,2009-07-04T23:00:00Z,30.1889,-90.1683,9999.0,11144222 
LUMCON,ioos:station:LUMCON:103:1,2009-07-05T00:00:00Z,30.1889,-90.1683,9999.0,11144222 
LUMCON,ioos:station:LUMCON:103:1,2009-07-05T01:00:00Z,30.1889,-90.1683,9999.0,11144222 
LUMCON,ioos:station:LUMCON:103:1,2009-07-05T02:00:00Z,30.1889,-90.1683,9999.0,11144222 
LUMCON,ioos:station:LUMCON:103:1,2009-07-05T03:00:00Z,30.1889,-90.1683,9999.0,11144222 
LUMCON,ioos:station:LUMCON:103:1,2009-07-05T15:00:00Z,30.1889,-90.1683,9999.0,11144222 
LUMCON,ioos:station:LUMCON:103:1,2009-07-05T16:00:00Z,30.1889,-90.1683,9999.0,11144222 
LUMCON,ioos:station:LUMCON:103:1,2009-07-05T17:00:00Z,30.1889,-90.1683,9999.0,11144222 
LUMCON,ioos:station:LUMCON:103:1,2009-07-05T18:00:00Z,30.1889,-90.1683,9999.0,11144222 
LUMCON,ioos:station:LUMCON:103:1,2009-07-05T19:00:00Z,30.1889,-90.1683,9999.0,11144222 
LUMCON,ioos:station:LUMCON:103:1,2009-07-05T20:00:00Z,30.1889,-90.1683,9999.0,11144222 
LUMCON,ioos:station:LUMCON:103:1,2009-07-05T21:00:00Z,30.1889,-90.1683,9999.0,11144222 
LUMCON,ioos:station:LUMCON:103:1,2009-07-05T22:00:00Z,30.1889,-90.1683,9999.0,11144222 
LUMCON,ioos:station:LUMCON:103:1,2009-07-05T23:00:00Z,30.1889,-90.1683,9999.0,11144222 
LUMCON,ioos:station:LUMCON:103:1,2009-07-06T00:00:00Z,30.1889,-90.1683,9999.0,11144222 
LUMCON,ioos:station:LUMCON:103:1,2009-07-06T01:00:00Z,30.1889,-90.1683,9999.0,11144222 
LUMCON,ioos:station:LUMCON:103:1,2009-07-06T02:00:00Z,30.1889,-90.1683,9999.0,11144222 
LUMCON,ioos:station:LUMCON:103:1,2009-07-06T03:00:00Z,30.1889,-90.1683,9999.0,11144222 
LUMCON,ioos:station:LUMCON:103:1,2009-07-06T04:00:00Z,30.1889,-90.1683,9999.0,11144222 
LUMCON,ioos:station:LUMCON:103:1,2009-07-06T05:00:00Z,30.1889,-90.1683,9999.0,11144222 
LUMCON,ioos:station:LUMCON:103:1,2009-07-06T15:00:00Z,30.1889,-90.1683,9999.0,11144222 
LUMCON,ioos:station:LUMCON:103:1,2009-07-06T16:00:00Z,30.1889,-90.1683,9999.0,11144222 
LUMCON,ioos:station:LUMCON:103:1,2009-07-06T22:00:00Z,30.1889,-90.1683,9999.0,11144222 
LUMCON,ioos:station:LUMCON:103:1,2009-07-06T23:00:00Z,30.1889,-90.1683,9999.0,11144222 
LUMCON,ioos:station:LUMCON:103:1,2009-07-07T00:00:00Z,30.1889,-90.1683,9999.0,11144222 
LUMCON,ioos:station:LUMCON:103:1,2009-07-07T15:00:00Z,30.1889,-90.1683,9999.0,11144222 
LUMCON,ioos:station:LUMCON:103:1,2009-07-07T16:00:00Z,30.1889,-90.1683,9999.0,11144222 
LUMCON,ioos:station:LUMCON:103:1,2009-07-07T17:00:00Z,30.1889,-90.1683,9999.0,11144222 
LUMCON,ioos:station:LUMCON:103:1,2009-07-07T18:00:00Z,30.1889,-90.1683,9999.0,11144222 
LUMCON,ioos:station:LUMCON:103:1,2009-07-07T19:00:00Z,30.1889,-90.1683,9999.0,11144222 
LUMCON,ioos:station:LUMCON:103:1,2009-07-07T20:00:00Z,30.1889,-90.1683,9999.0,11144222 
LUMCON,ioos:station:LUMCON:103:1,2009-07-07T21:00:00Z,30.1889,-90.1683,9999.0,11144222 
LUMCON,ioos:station:LUMCON:103:1,2009-07-07T22:00:00Z,30.1889,-90.1683,9999.0,11144222 
LUMCON,ioos:station:LUMCON:103:1,2009-07-07T23:00:00Z,30.1889,-90.1683,9999.0,11144222 
LUMCON,ioos:station:LUMCON:103:1,2009-07-08T00:00:00Z,30.1889,-90.1683,9999.0,11144222 
LUMCON,ioos:station:LUMCON:103:1,2009-07-08T01:00:00Z,30.1889,-90.1683,9999.0,11144222 
LUMCON,ioos:station:LUMCON:103:1,2009-07-08T02:00:00Z,30.1889,-90.1683,9999.0,11144222 
LUMCON,ioos:station:LUMCON:103:1,2009-07-08T03:00:00Z,30.1889,-90.1683,9999.0,11144222 
LUMCON,ioos:station:LUMCON:103:1,2009-07-08T16:00:00Z,30.1889,-90.1683,9999.0,11144222 
LUMCON,ioos:station:LUMCON:103:1,2009-07-08T17:00:00Z,30.1889,-90.1683,9999.0,11144222 
LUMCON,ioos:station:LUMCON:103:1,2009-07-08T18:00:00Z,30.1889,-90.1683,9999.0,11144222 
LUMCON,ioos:station:LUMCON:103:1,2009-07-08T20:00:00Z,30.1889,-90.1683,9999.0,11144222 
LUMCON,ioos:station:LUMCON:103:1,2009-07-08T21:00:00Z,30.1889,-90.1683,9999.0,11144222 
LUMCON,ioos:station:LUMCON:103:1,2009-07-08T22:00:00Z,30.1889,-90.1683,9999.0,11144222 
LUMCON,ioos:station:LUMCON:103:1,2009-07-08T23:00:00Z,30.1889,-90.1683,9999.0,11144222 
LUMCON,ioos:station:LUMCON:103:1,2009-07-09T00:00:00Z,30.1889,-90.1683,9999.0,11144222 
LUMCON,ioos:station:LUMCON:103:1,2009-07-09T01:00:00Z,30.1889,-90.1683,9999.0,11144222 
LUMCON,ioos:station:LUMCON:103:1,2009-07-09T02:00:00Z,30.1889,-90.1683,9999.0,11144222 
LUMCON,ioos:station:LUMCON:103:1,2009-07-09T15:00:00Z,30.1889,-90.1683,9999.0,11144222 
LUMCON,ioos:station:LUMCON:103:1,2009-07-09T16:00:00Z,30.1889,-90.1683,9999.0,11144222 
LUMCON,ioos:station:LUMCON:103:1,2009-07-09T17:00:00Z,30.1889,-90.1683,9999.0,11144222 
LUMCON,ioos:station:LUMCON:103:1,2009-07-09T18:00:00Z,30.1889,-90.1683,9999.0,11144222 
LUMCON,ioos:station:LUMCON:103:1,2009-07-09T19:00:00Z,30.1889,-90.1683,9999.0,11144222 
LUMCON,ioos:station:LUMCON:103:1,2009-07-09T20:00:00Z,30.1889,-90.1683,9999.0,11144222 
LUMCON,ioos:station:LUMCON:103:1,2009-07-09T21:00:00Z,30.1889,-90.1683,9999.0,11144222 
LUMCON,ioos:station:LUMCON:103:1,2009-07-09T22:00:00Z,30.1889,-90.1683,9999.0,11144222 
LUMCON,ioos:station:LUMCON:103:1,2009-07-09T23:00:00Z,30.1889,-90.1683,9999.0,11144222 
LUMCON,ioos:station:LUMCON:103:1,2009-07-10T00:00:00Z,30.1889,-90.1683,9999.0,11144222 
LUMCON,ioos:station:LUMCON:103:1,2009-07-10T15:00:00Z,30.1889,-90.1683,9999.0,11144222 
LUMCON,ioos:station:LUMCON:103:1,2009-07-10T16:00:00Z,30.1889,-90.1683,9999.0,11144222 
LUMCON,ioos:station:LUMCON:103:1,2009-07-10T17:00:00Z,30.1889,-90.1683,9999.0,11144222 
LUMCON,ioos:station:LUMCON:103:1,2009-07-10T18:00:00Z,30.1889,-90.1683,9999.0,11144222 
LUMCON,ioos:station:LUMCON:103:1,2009-07-10T19:00:00Z,30.1889,-90.1683,9999.0,11144222 
LUMCON,ioos:station:LUMCON:103:1,2009-07-10T20:00:00Z,30.1889,-90.1683,9999.0,11144222 
LUMCON,ioos:station:LUMCON:103:1,2009-07-10T21:00:00Z,30.1889,-90.1683,9999.0,11144222 
LUMCON,ioos:station:LUMCON:103:1,2009-07-10T22:00:00Z,30.1889,-90.1683,9999.0,11144222 
LUMCON,ioos:station:LUMCON:103:1,2009-07-10T23:00:00Z,30.1889,-90.1683,9999.0,11144222 
LUMCON,ioos:station:LUMCON:103:1,2009-07-11T00:00:00Z,30.1889,-90.1683,9999.0,11144222 
LUMCON,ioos:station:LUMCON:103:1,2009-07-11T01:00:00Z,30.1889,-90.1683,9999.0,11144222 
LUMCON,ioos:station:LUMCON:103:1,2009-07-11T02:00:00Z,30.1889,-90.1683,9999.0,11144222 
LUMCON,ioos:station:LUMCON:103:1,2009-07-11T03:00:00Z,30.1889,-90.1683,9999.0,11144222 
LUMCON,ioos:station:LUMCON:103:1,2009-07-11T04:00:00Z,30.1889,-90.1683,9999.0,11144222 
LUMCON,ioos:station:LUMCON:103:1,2009-07-11T15:00:00Z,30.1889,-90.1683,9999.0,11144222 
LUMCON,ioos:station:LUMCON:103:1,2009-07-11T16:00:00Z,30.1889,-90.1683,9999.0,11144222 
LUMCON,ioos:station:LUMCON:103:1,2009-07-11T17:00:00Z,30.1889,-90.1683,9999.0,11144222 
LUMCON,ioos:station:LUMCON:103:1,2009-07-11T18:00:00Z,30.1889,-90.1683,9999.0,11144222 
LUMCON,ioos:station:LUMCON:103:1,2009-07-11T19:00:00Z,30.1889,-90.1683,9999.0,11144222 
LUMCON,ioos:station:LUMCON:103:1,2009-07-11T20:00:00Z,30.1889,-90.1683,9999.0,11144222 
LUMCON,ioos:station:LUMCON:103:1,2009-07-11T21:00:00Z,30.1889,-90.1683,9999.0,11144222 
LUMCON,ioos:station:LUMCON:103:1,2009-07-11T22:00:00Z,30.1889,-90.1683,9999.0,11144222 
LUMCON,ioos:station:LUMCON:103:1,2009-07-11T23:00:00Z,30.1889,-90.1683,9999.0,11144222 
LUMCON,ioos:station:LUMCON:103:1,2009-07-12T00:00:00Z,30.1889,-90.1683,9999.0,11144222 
LUMCON,ioos:station:LUMCON:103:1,2009-07-12T01:00:00Z,30.1889,-90.1683,9999.0,11144222 
LUMCON,ioos:station:LUMCON:103:1,2009-07-12T02:00:00Z,30.1889,-90.1683,9999.0,11144222 
LUMCON,ioos:station:LUMCON:103:1,2009-07-12T03:00:00Z,30.1889,-90.1683,9999.0,11144222 
LUMCON,ioos:station:LUMCON:103:1,2009-07-12T04:00:00Z,30.1889,-90.1683,9999.0,11144222 
LUMCON,ioos:station:LUMCON:103:1,2009-07-12T05:00:00Z,30.1889,-90.1683,9999.0,11144222 
LUMCON,ioos:station:LUMCON:103:1,2009-07-12T14:00:00Z,30.1889,-90.1683,9999.0,11144222 
LUMCON,ioos:station:LUMCON:103:1,2009-07-12T15:00:00Z,30.1889,-90.1683,9999.0,11144222 
LUMCON,ioos:station:LUMCON:103:1,2009-07-12T16:00:00Z,30.1889,-90.1683,9999.0,11144222 
LUMCON,ioos:station:LUMCON:103:1,2009-07-12T17:00:00Z,30.1889,-90.1683,9999.0,11144222 
LUMCON,ioos:station:LUMCON:103:1,2009-07-12T18:00:00Z,30.1889,-90.1683,9999.0,11144222 
LUMCON,ioos:station:LUMCON:103:1,2009-07-12T19:00:00Z,30.1889,-90.1683,9999.0,11144222 
LUMCON,ioos:station:LUMCON:103:1,2009-07-12T20:00:00Z,30.1889,-90.1683,9999.0,11144222 
LUMCON,ioos:station:LUMCON:103:1,2009-07-12T21:00:00Z,30.1889,-90.1683,9999.0,11144222 
LUMCON,ioos:station:LUMCON:103:1,2009-07-12T22:00:00Z,30.1889,-90.1683,9999.0,11144222 
LUMCON,ioos:station:LUMCON:103:1,2009-07-12T23:00:00Z,30.1889,-90.1683,9999.0,11144222 
LUMCON,ioos:station:LUMCON:103:1,2009-07-13T00:00:00Z,30.1889,-90.1683,9999.0,11144222 
LUMCON,ioos:station:LUMCON:103:1,2009-07-13T01:00:00Z,30.1889,-90.1683,9999.0,11144222 
LUMCON,ioos:station:LUMCON:103:1,2009-07-13T02:00:00Z,30.1889,-90.1683,9999.0,11144222 
LUMCON,ioos:station:LUMCON:103:1,2009-07-13T03:00:00Z,30.1889,-90.1683,9999.0,11144222 
LUMCON,ioos:station:LUMCON:103:1,2009-07-13T04:00:00Z,30.1889,-90.1683,9999.0,11144222 
LUMCON,ioos:station:LUMCON:103:1,2009-07-13T05:00:00Z,30.1889,-90.1683,9999.0,11144222 
LUMCON,ioos:station:LUMCON:103:1,2009-07-13T06:00:00Z,30.1889,-90.1683,9999.0,11144222 
LUMCON,ioos:station:LUMCON:103:1,2009-07-13T15:00:00Z,30.1889,-90.1683,9999.0,11144222 
LUMCON,ioos:station:LUMCON:103:1,2009-07-13T16:00:00Z,30.1889,-90.1683,9999.0,11144222 
LUMCON,ioos:station:LUMCON:103:1,2009-07-13T17:00:00Z,30.1889,-90.1683,9999.0,11144222 
LUMCON,ioos:station:LUMCON:103:1,2009-07-13T18:00:00Z,30.1889,-90.1683,9999.0,11144222 
LUMCON,ioos:station:LUMCON:103:1,2009-07-13T19:00:00Z,30.1889,-90.1683,9999.0,11144222 
LUMCON,ioos:station:LUMCON:103:1,2009-07-13T20:00:00Z,30.1889,-90.1683,9999.0,11144222 
LUMCON,ioos:station:LUMCON:103:1,2009-07-13T21:00:00Z,30.1889,-90.1683,9999.0,11144222 
LUMCON,ioos:station:LUMCON:103:1,2009-07-13T23:00:00Z,30.1889,-90.1683,9999.0,11144222 
LUMCON,ioos:station:LUMCON:103:1,2009-07-14T00:00:00Z,30.1889,-90.1683,9999.0,11144222 
LUMCON,ioos:station:LUMCON:103:1,2009-07-14T01:00:00Z,30.1889,-90.1683,9999.0,11144222 
LUMCON,ioos:station:LUMCON:103:1,2009-07-14T15:00:00Z,30.1889,-90.1683,9999.0,11144222 
LUMCON,ioos:station:LUMCON:103:1,2009-07-14T16:00:00Z,30.1889,-90.1683,9999.0,11144222 
LUMCON,ioos:station:LUMCON:103:1,2009-07-14T17:00:00Z,30.1889,-90.1683,9999.0,11144222 
LUMCON,ioos:station:LUMCON:103:1,2009-07-14T18:00:00Z,30.1889,-90.1683,9999.0,11144222 
LUMCON,ioos:station:LUMCON:103:1,2009-07-14T19:00:00Z,30.1889,-90.1683,9999.0,11144222 
LUMCON,ioos:station:LUMCON:103:1,2009-07-14T20:00:00Z,30.1889,-90.1683,9999.0,11144222 
LUMCON,ioos:station:LUMCON:103:1,2009-07-14T21:00:00Z,30.1889,-90.1683,9999.0,11144222 
LUMCON,ioos:station:LUMCON:103:1,2009-07-14T22:00:00Z,30.1889,-90.1683,9999.0,11144222 
LUMCON,ioos:station:LUMCON:103:1,2009-07-14T23:00:00Z,30.1889,-90.1683,9999.0,11144222 
LUMCON,ioos:station:LUMCON:103:1,2009-07-15T00:00:00Z,30.1889,-90.1683,9999.0,11144222 
LUMCON,ioos:station:LUMCON:103:1,2009-07-15T01:00:00Z,30.1889,-90.1683,9999.0,11144222 
LUMCON,ioos:station:LUMCON:103:1,2009-07-15T02:00:00Z,30.1889,-90.1683,9999.0,11144222 
LUMCON,ioos:station:LUMCON:103:1,2009-07-15T03:00:00Z,30.1889,-90.1683,9999.0,11144222 
LUMCON,ioos:station:LUMCON:103:1,2009-07-15T04:00:00Z,30.1889,-90.1683,9999.0,11144222 
LUMCON,ioos:station:LUMCON:103:1,2009-07-15T15:00:00Z,30.1889,-90.1683,9999.0,11144222 
LUMCON,ioos:station:LUMCON:103:1,2009-07-15T16:00:00Z,30.1889,-90.1683,9999.0,11144222 
LUMCON,ioos:station:LUMCON:103:1,2009-07-15T17:00:00Z,30.1889,-90.1683,1018.9,11111222 
LUMCON,ioos:station:LUMCON:103:1,2009-07-15T18:00:00Z,30.1889,-90.1683,1018.4,11111222 
LUMCON,ioos:station:LUMCON:103:1,2009-07-15T19:00:00Z,30.1889,-90.1683,1017.8,11111222 
LUMCON,ioos:station:LUMCON:103:1,2009-07-15T20:00:00Z,30.1889,-90.1683,1017.3,11111222 
LUMCON,ioos:station:LUMCON:103:1,2009-07-15T21:00:00Z,30.1889,-90.1683,1017.1,11111222 
LUMCON,ioos:station:LUMCON:103:1,2009-07-15T22:00:00Z,30.1889,-90.1683,1017.1,11111222 
LUMCON,ioos:station:LUMCON:103:1,2009-07-15T23:00:00Z,30.1889,-90.1683,1016.8,11111222 
LUMCON,ioos:station:LUMCON:103:1,2009-07-16T00:00:00Z,30.1889,-90.1683,1016.9,11111222 
LUMCON,ioos:station:LUMCON:103:1,2009-07-16T01:00:00Z,30.1889,-90.1683,1016.6,11111222 
LUMCON,ioos:station:LUMCON:103:1,2009-07-16T02:00:00Z,30.1889,-90.1683,1017.1,11111222 
LUMCON,ioos:station:LUMCON:103:1,2009-07-16T03:00:00Z,30.1889,-90.1683,1017.3,11111222 
LUMCON,ioos:station:LUMCON:103:1,2009-07-16T15:00:00Z,30.1889,-90.1683,1017.8,11111222 
LUMCON,ioos:station:LUMCON:103:1,2009-07-16T16:00:00Z,30.1889,-90.1683,1017.6,11111222 
LUMCON,ioos:station:LUMCON:103:1,2009-07-16T17:00:00Z,30.1889,-90.1683,1017.5,11111222 
LUMCON,ioos:station:LUMCON:103:1,2009-07-16T18:00:00Z,30.1889,-90.1683,1017.5,11111222 
LUMCON,ioos:station:LUMCON:103:1,2009-07-16T19:00:00Z,30.1889,-90.1683,1017.1,11111222 
LUMCON,ioos:station:LUMCON:103:1,2009-07-16T20:00:00Z,30.1889,-90.1683,1016.5,11111222 
LUMCON,ioos:station:LUMCON:103:1,2009-07-16T21:00:00Z,30.1889,-90.1683,1015.2,11111222 
LUMCON,ioos:station:LUMCON:103:1,2009-07-16T22:00:00Z,30.1889,-90.1683,1014.7,11111222 
LUMCON,ioos:station:LUMCON:103:1,2009-07-16T23:00:00Z,30.1889,-90.1683,1014.6,11111222 
LUMCON,ioos:station:LUMCON:103:1,2009-07-17T00:00:00Z,30.1889,-90.1683,1015.1,11111222 
LUMCON,ioos:station:LUMCON:103:1,2009-07-17T01:00:00Z,30.1889,-90.1683,1014.9,11111222 
LUMCON,ioos:station:LUMCON:103:1,2009-07-17T02:00:00Z,30.1889,-90.1683,1014.8,11111222 
LUMCON,ioos:station:LUMCON:103:1,2009-07-17T16:00:00Z,30.1889,-90.1683,1016.5,11111222 
LUMCON,ioos:station:LUMCON:103:1,2009-07-17T17:00:00Z,30.1889,-90.1683,1016.0,11111222 
LUMCON,ioos:station:LUMCON:103:1,2009-07-17T18:00:00Z,30.1889,-90.1683,1015.5,11111222 
LUMCON,ioos:station:LUMCON:103:1,2009-07-17T19:00:00Z,30.1889,-90.1683,1015.2,11111222 
LUMCON,ioos:station:LUMCON:103:1,2009-07-17T20:00:00Z,30.1889,-90.1683,1015.0,11111222 
LUMCON,ioos:station:LUMCON:103:1,2009-07-17T21:00:00Z,30.1889,-90.1683,1015.4,11111222 
LUMCON,ioos:station:LUMCON:103:1,2009-07-17T22:00:00Z,30.1889,-90.1683,1015.5,11111222 
LUMCON,ioos:station:LUMCON:103:1,2009-07-17T23:00:00Z,30.1889,-90.1683,1014.9,11111222 
LUMCON,ioos:station:LUMCON:103:1,2009-07-18T00:00:00Z,30.1889,-90.1683,1014.6,11111222 
LUMCON,ioos:station:LUMCON:103:1,2009-07-18T15:00:00Z,30.1889,-90.1683,1017.8,11111222 
LUMCON,ioos:station:LUMCON:103:1,2009-07-18T16:00:00Z,30.1889,-90.1683,1018.0,11111222 
LUMCON,ioos:station:LUMCON:103:1,2009-07-18T17:00:00Z,30.1889,-90.1683,1018.0,11111222 
LUMCON,ioos:station:LUMCON:103:1,2009-07-18T18:00:00Z,30.1889,-90.1683,1017.7,11111222 
LUMCON,ioos:station:LUMCON:103:1,2009-07-18T19:00:00Z,30.1889,-90.1683,1017.3,11111222 
LUMCON,ioos:station:LUMCON:103:1,2009-07-18T20:00:00Z,30.1889,-90.1683,1017.1,11111222 
LUMCON,ioos:station:LUMCON:103:1,2009-07-18T21:00:00Z,30.1889,-90.1683,1016.9,11111222 
LUMCON,ioos:station:LUMCON:103:1,2009-07-18T22:00:00Z,30.1889,-90.1683,1016.8,11111222 
LUMCON,ioos:station:LUMCON:103:1,2009-07-18T23:00:00Z,30.1889,-90.1683,1016.3,11111222 
LUMCON,ioos:station:LUMCON:103:1,2009-07-19T00:00:00Z,30.1889,-90.1683,1016.6,11111222 
LUMCON,ioos:station:LUMCON:103:1,2009-07-19T01:00:00Z,30.1889,-90.1683,1017.2,11111222 
LUMCON,ioos:station:LUMCON:103:1,2009-07-19T02:00:00Z,30.1889,-90.1683,1018.7,11111222 
LUMCON,ioos:station:LUMCON:103:1,2009-07-19T03:00:00Z,30.1889,-90.1683,1018.7,11111222 
LUMCON,ioos:station:LUMCON:103:1,2009-07-19T04:00:00Z,30.1889,-90.1683,1017.0,11111222 
LUMCON,ioos:station:LUMCON:103:1,2009-07-19T16:00:00Z,30.1889,-90.1683,1020.2,11111222 
LUMCON,ioos:station:LUMCON:103:1,2009-07-19T17:00:00Z,30.1889,-90.1683,1020.0,11111222 
LUMCON,ioos:station:LUMCON:103:1,2009-07-19T18:00:00Z,30.1889,-90.1683,1019.5,11111222 
LUMCON,ioos:station:LUMCON:103:1,2009-07-19T19:00:00Z,30.1889,-90.1683,1018.9,11111222 
LUMCON,ioos:station:LUMCON:103:1,2009-07-19T20:00:00Z,30.1889,-90.1683,1018.3,11111222 
LUMCON,ioos:station:LUMCON:103:1,2009-07-19T21:00:00Z,30.1889,-90.1683,1017.7,11111222 
LUMCON,ioos:station:LUMCON:103:1,2009-07-19T22:00:00Z,30.1889,-90.1683,1017.7,11111222 
LUMCON,ioos:station:LUMCON:103:1,2009-07-19T23:00:00Z,30.1889,-90.1683,1017.6,11111222 
LUMCON,ioos:station:LUMCON:103:1,2009-07-20T00:00:00Z,30.1889,-90.1683,1017.3,11111222 
LUMCON,ioos:station:LUMCON:103:1,2009-07-20T01:00:00Z,30.1889,-90.1683,1017.5,11111222 
LUMCON,ioos:station:LUMCON:103:1,2009-07-20T02:00:00Z,30.1889,-90.1683,1017.6,11111222 
LUMCON,ioos:station:LUMCON:103:1,2009-07-20T03:00:00Z,30.1889,-90.1683,1017.9,11111222 
LUMCON,ioos:station:LUMCON:103:1,2009-07-20T04:00:00Z,30.1889,-90.1683,1018.0,11111222 
LUMCON,ioos:station:LUMCON:103:1,2009-07-20T05:00:00Z,30.1889,-90.1683,1017.7,11111222 
LUMCON,ioos:station:LUMCON:103:1,2009-07-20T06:00:00Z,30.1889,-90.1683,1017.1,11111222 
LUMCON,ioos:station:LUMCON:103:1,2009-07-20T07:00:00Z,30.1889,-90.1683,1016.7,11111222 
LUMCON,ioos:station:LUMCON:103:1,2009-07-20T08:00:00Z,30.1889,-90.1683,1016.4,11111222 
LUMCON,ioos:station:LUMCON:103:1,2009-07-20T15:00:00Z,30.1889,-90.1683,1018.0,11111222 
LUMCON,ioos:station:LUMCON:103:1,2009-07-20T16:00:00Z,30.1889,-90.1683,1018.0,11111222 
LUMCON,ioos:station:LUMCON:103:1,2009-07-20T17:00:00Z,30.1889,-90.1683,1017.7,11111222 
LUMCON,ioos:station:LUMCON:103:1,2009-07-20T18:00:00Z,30.1889,-90.1683,1017.4,11111222 
LUMCON,ioos:station:LUMCON:103:1,2009-07-20T20:00:00Z,30.1889,-90.1683,1016.5,11111222 
LUMCON,ioos:station:LUMCON:103:1,2009-07-20T21:00:00Z,30.1889,-90.1683,1015.9,11111222 
LUMCON,ioos:station:LUMCON:103:1,2009-07-20T22:00:00Z,30.1889,-90.1683,1015.7,11111222 
LUMCON,ioos:station:LUMCON:103:1,2009-07-20T23:00:00Z,30.1889,-90.1683,1015.3,11111222 
LUMCON,ioos:station:LUMCON:103:1,2009-07-21T00:00:00Z,30.1889,-90.1683,1015.0,11111222 
LUMCON,ioos:station:LUMCON:103:1,2009-07-21T01:00:00Z,30.1889,-90.1683,1015.1,11111222 
LUMCON,ioos:station:LUMCON:103:1,2009-07-21T15:00:00Z,30.1889,-90.1683,1015.6,11111222 
LUMCON,ioos:station:LUMCON:103:1,2009-07-21T16:00:00Z,30.1889,-90.1683,1015.7,11111222 
LUMCON,ioos:station:LUMCON:103:1,2009-07-21T17:00:00Z,30.1889,-90.1683,1015.4,11111222 
LUMCON,ioos:station:LUMCON:103:1,2009-07-21T18:00:00Z,30.1889,-90.1683,1015.2,11111222 
LUMCON,ioos:station:LUMCON:103:1,2009-07-21T19:00:00Z,30.1889,-90.1683,1014.7,11111222 
LUMCON,ioos:station:LUMCON:103:1,2009-07-21T20:00:00Z,30.1889,-90.1683,1014.0,11111222 
LUMCON,ioos:station:LUMCON:103:1,2009-07-21T21:00:00Z,30.1889,-90.1683,1013.8,11111222 
LUMCON,ioos:station:LUMCON:103:1,2009-07-21T22:00:00Z,30.1889,-90.1683,1013.9,11111222 
LUMCON,ioos:station:LUMCON:103:1,2009-07-21T23:00:00Z,30.1889,-90.1683,1013.7,11111222 
LUMCON,ioos:station:LUMCON:103:1,2009-07-22T00:00:00Z,30.1889,-90.1683,1013.3,11111222 
LUMCON,ioos:station:LUMCON:103:1,2009-07-22T01:00:00Z,30.1889,-90.1683,1013.6,11111222 
LUMCON,ioos:station:LUMCON:103:1,2009-07-22T02:00:00Z,30.1889,-90.1683,1013.3,11111222 
LUMCON,ioos:station:LUMCON:103:1,2009-07-22T15:00:00Z,30.1889,-90.1683,1014.8,11111222 
LUMCON,ioos:station:LUMCON:103:1,2009-07-22T17:00:00Z,30.1889,-90.1683,1015.2,11111222 
LUMCON,ioos:station:LUMCON:103:1,2009-07-22T18:00:00Z,30.1889,-90.1683,1014.9,11111222 
LUMCON,ioos:station:LUMCON:103:1,2009-07-22T19:00:00Z,30.1889,-90.1683,1014.7,11111222 
LUMCON,ioos:station:LUMCON:103:1,2009-07-22T20:00:00Z,30.1889,-90.1683,1013.9,11111222 
LUMCON,ioos:station:LUMCON:103:1,2009-07-22T21:00:00Z,30.1889,-90.1683,1013.9,11111222 
LUMCON,ioos:station:LUMCON:103:1,2009-07-22T22:00:00Z,30.1889,-90.1683,1013.7,11111222 
LUMCON,ioos:station:LUMCON:103:1,2009-07-22T23:00:00Z,30.1889,-90.1683,1013.4,11111222 
LUMCON,ioos:station:LUMCON:103:1,2009-07-23T00:00:00Z,30.1889,-90.1683,1013.0,11111222 
LUMCON,ioos:station:LUMCON:103:1,2009-07-23T01:00:00Z,30.1889,-90.1683,1013.2,11111222 
LUMCON,ioos:station:LUMCON:103:1,2009-07-23T02:00:00Z,30.1889,-90.1683,1013.2,11111222 
LUMCON,ioos:station:LUMCON:103:1,2009-07-23T03:00:00Z,30.1889,-90.1683,1013.8,11111222 